Tracking 19199 objects as of 25-Jun-2018
HD Live streaming from Space Station
objects crossing your sky now

FENGYUN 1C DEB

Track FENGYUN 1C DEB now!
10-day predictions


NORAD ID: 36726
Int'l Code: 1999-025EAY
Perigee: 504.0 km
Apogee: 593.4 km
Inclination: 99.0 °
Period: 95.5 minutes
Semi major axis: 6919 km
RCS: 0.0079 m2 (small)
Launch date: May 10, 1999
Source: People's Republic of China (PRC)
Launch site: Taiyaun Space Center, China (TSC)

Note: This is SATELLITE DEBRIS
aabbcc
Your satellite tracking list
Your tracking list is empty




NASA's NSSDC Master Catalog

Two Line Element Set (TLE):
1 36726U 99025EAY 18175.37271588  .00010037  00000-0  62222-3 0  9990
2 36726  98.9729 240.8358 0064662  61.1218 299.6474 15.08246940510807
Source of the keplerian elements: AFSPC